Salem, OR

1:26 PM PST on February 23, 2018 (GMT -0800)
McNary

Weather History for KSLE - November, 2014

Change the Weather History Date:

Monday, November 24, 2014

  Actual Average Record
Temperature  
Mean Temperature 49 °F 44 °F  
Max Temperature 55 °F 50 °F 67 °F (1936)
Min Temperature 43 °F 37 °F 11 °F (1985)
Degree Days  
Heating Degree Days 16 21  
Month to date heating degree days 464 450  
Since 1 July heating degree days 673 982  
Cooling Degree Days 0 0  
Month to date cooling degree days 0 0  
Year to date cooling degree days 605 290  
Moisture  
Dew Point 44 °F    
Average Humidity 79    
Maximum Humidity 93    
Minimum Humidity 64    
Precipitation  
Precipitation T in 0.23 in 2.57 in (1960)
Month to date precipitation 3.51 5.02  
Year to date precipitation 33.33 31.33  
Sea Level Pressure  
Sea Level Pressure 30.32 in    
Wind  
Wind Speed 8 mph (SSE)    
Max Wind Speed 17 mph    
Max Gust Speed 21 mph    
Visibility 10 miles    
Events Rain    
T = Trace of Precipitation, MM = Missing Value Source: NWS Daily Summary

Daily Weather History Graph

Daily Weather History Graph

Search for Another Location

Airport or City:

Trip Planner

Search our weather history database for the weather conditions in past years. The results will help you decide how hot, cold, wet, or windy it might be!

Date:

Astronomy

Nov. 24, 2014 Rise Set
Actual Time 7:21 AM PST 4:35 PM PST
Civil Twilight 6:48 AM PST 5:08 PM PST
Nautical Twilight 6:12 AM PST 5:44 PM PST
Astronomical Twilight 5:37 AM PST 6:19 PM PST
Moon 9:18 AM PST (11/24) 7:04 PM PST (11/24)
Length of Visible Light 10h 19m
Length of Day
9h 14m
Waxing Crescent, 7% of the Moon is Illuminated
Nov 24
Waxing Crescent
Nov 29
First Quarter
Dec 6
Full
Dec 14
Last Quarter
Dec 21
New

Hourly Weather History & Observations

Time (PST) Temp. Windchill Dew Point Humidity Pressure Visibility Wind Dir Wind Speed Gust Speed Precip Events Conditions
12:56 AM 48.9 °F - 46.0 °F 90% 30.36 in 10.0 mi South 3.5 mph - N/A   Overcast
1:56 AM 48.9 °F - 46.0 °F 90% 30.36 in 10.0 mi SSE 8.1 mph - N/A   Overcast
2:56 AM 48.9 °F - 46.0 °F 90% 30.37 in 10.0 mi SSE 4.6 mph - N/A   Overcast
3:56 AM 48.0 °F - 45.0 °F 89% 30.36 in 10.0 mi SSE 5.8 mph - N/A   Overcast
4:56 AM 48.9 °F - 44.1 °F 83% 30.35 in 10.0 mi SE 5.8 mph - N/A   Overcast
5:56 AM 45.0 °F 41.2 °F 43.0 °F 93% 30.36 in 10.0 mi SSE 6.9 mph - N/A   Scattered Clouds
6:56 AM 44.1 °F 42.5 °F 42.1 °F 93% 30.36 in 10.0 mi SSE 3.5 mph - N/A   Clear
7:56 AM 44.1 °F 42.5 °F 41.0 °F 89% 30.37 in 10.0 mi SE 3.5 mph - N/A   Clear
8:56 AM 46.0 °F 44.8 °F 43.0 °F 89% 30.38 in 10.0 mi ESE 3.5 mph - N/A   Clear
9:56 AM 48.9 °F - 43.0 °F 80% 30.37 in 10.0 mi South 4.6 mph - N/A   Clear
10:56 AM 51.1 °F - 43.0 °F 74% 30.36 in 10.0 mi South 13.8 mph - N/A   Clear
11:56 AM 52.0 °F - 43.0 °F 71% 30.34 in 10.0 mi South 9.2 mph - N/A   Clear
12:56 PM 52.0 °F - 43.0 °F 71% 30.32 in 10.0 mi SSE 11.5 mph - N/A   Scattered Clouds
1:56 PM 53.1 °F - 43.0 °F 69% 30.30 in 10.0 mi SSE 8.1 mph - N/A   Overcast
2:56 PM 52.0 °F - 42.1 °F 69% 30.29 in 10.0 mi South 9.2 mph - 0.00 in Rain Light Rain
3:56 PM 52.0 °F - 45.0 °F 77% 30.28 in 10.0 mi South 9.2 mph - 0.00 in   Overcast
4:56 PM 53.1 °F - 43.0 °F 69% 30.28 in 10.0 mi South 8.1 mph - N/A   Mostly Cloudy
5:56 PM 54.0 °F - 41.0 °F 62% 30.27 in 10.0 mi South 12.7 mph 18.4 mph N/A   Overcast
6:56 PM 54.0 °F - 41.0 °F 62% 30.27 in 10.0 mi South 12.7 mph - N/A   Overcast
7:17 PM 54.0 °F - 42.1 °F 64% 30.27 in 10.0 mi South 10.4 mph - N/A   Overcast
7:56 PM 54.0 °F - 44.1 °F 69% 30.28 in 10.0 mi South 9.2 mph - N/A   Overcast
8:56 PM 54.0 °F - 46.0 °F 75% 30.29 in 10.0 mi South 10.4 mph - N/A   Overcast
9:56 PM 54.0 °F - 46.0 °F 75% 30.30 in 10.0 mi South 10.4 mph - 0.00 in   Overcast
10:25 PM 54.0 °F - 46.9 °F 77% 30.30 in 10.0 mi South 12.7 mph - 0.00 in Rain Light Rain
10:56 PM 54.0 °F - 48.0 °F 80% 30.29 in 10.0 mi South 11.5 mph - 0.00 in   Overcast
11:56 PM 55.0 °F - 48.9 °F 80% 30.30 in 10.0 mi South 11.5 mph - N/A   Overcast